Location: Krasnoyarskiy Pitomnik
(51.1333°N, 71.6167°E)
Time: 08:09:08
(UTC+00:00)

Resurs 1-4 Rocket - Pass Details

Date: 22 October 2021
Orbit: 800 x 813 km, 98.7° (Epoch: 06 December)

Event Time Altitude Azimuth Distance (km) Brightness Sun altitude
Rises 22:05:29 0° 9° (N) 3,346 5.8 -35.0°
Reaches altitude 10° 22:08:01 10° 360° (N) 2,412 4.8 -34.7°
Enters shadow 22:09:01 15° 354° (N) 2,077 4.4 -34.5°
